This is the latest recevied weather packets stored in our database for station/object N6RDS. If no packets are shown the sender has not sent any weather packets the latest 1 day(s).
| Time | Temp. | Humidity | Pressure | Rain* | Wind** | Luminosity | Snow |
|---|---|---|---|---|---|---|---|
| 1778050764 | 0° C | 95% | 1022.2 hPa | 0 mm | - | 0 W/m² | - |
| 1778050461 | 0° C | 95% | 1022.2 hPa | 0 mm | - | 0 W/m² | - |
| 1778048340 | 0.56° C | 94% | 1022 hPa | 0 mm | - | 0 W/m² | - |
| 1778047735 | 0.56° C | 94% | 1021.7 hPa | 0 mm | - | 0 W/m² | - |
| 1778047129 | 1.11° C | 94% | 1021.7 hPa | 0 mm | - | 0 W/m² | - |
| 1778046826 | 1.11° C | 94% | 1022 hPa | 0 mm | - | 0 W/m² | - |
| 1778046523 | 1.11° C | 95% | 1021.8 hPa | 0 mm | - | 0 W/m² | - |
| 1778045916 | 1.11° C | 94% | 1021.6 hPa | 0 mm | - | 0 W/m² | - |
| 1778045615 | 1.11° C | 94% | 1021.8 hPa | 0 mm | - | 0 W/m² | - |
| 1778045011 | 1.11° C | 94% | 1021.6 hPa | 0 mm | - | 0 W/m² | - |
| 1778044708 | 1.67° C | 94% | 1021.8 hPa | 0 mm | - | 0 W/m² | - |
| 1778044404 | 1.67° C | 94% | 1021.7 hPa | 0 mm | - | 0 W/m² | - |
| 1778044102 | 1.67° C | 94% | 1021.7 hPa | 0 mm | - | 0 W/m² | - |
| 1778043799 | 1.67° C | 94% | 1021.6 hPa | 0 mm | - | 0 W/m² | - |
| 1778043496 | 2.22° C | 94% | 1021.6 hPa | 0 mm | - | 0 W/m² | - |
| 1778042890 | 2.22° C | 94% | 1021.6 hPa | 0 mm | - | 0 W/m² | - |
| 1778042587 | 2.22° C | 94% | 1021.6 hPa | 0 mm | - | 0 W/m² | - |
| 1778041981 | 2.22° C | 94% | 1021.6 hPa | 0 mm | - | 0 W/m² | - |
| 1778041379 | 2.22° C | 94% | 1021.5 hPa | 0 mm | - | 0 W/m² | - |
| 1778041077 | 2.22° C | 94% | 1021.6 hPa | 0 mm | - | 0 W/m² | - |
| 1778040471 | 2.22° C | 93% | 1021.3 hPa | 0 mm | - | 0 W/m² | - |
| 1778040168 | 2.22° C | 93% | 1021.5 hPa | 0 mm | - | 0 W/m² | - |
| 1778039561 | 2.78° C | 92% | 1021.2 hPa | 0 mm | - | 0 W/m² | - |
| 1778039259 | 2.78° C | 92% | 1021.2 hPa | 0 mm | - | 0 W/m² | - |
| 1778038956 | 3.33° C | 92% | 1021.1 hPa | 0 mm | - | 0 W/m² | - |
* Rain latest hour (hover to see other rain measurements)
** Current wind speed in m/s (hover to see current wind gust speed)